Location: Ergnies
(50.0854°N, 2.0375°E)
Time: 06:56:14
(UTC+00:00)

Cosmos 1833 Rocket - Pass Details

Date: 14 January 2026
Orbit: 831 x 839 km, 71.0° (Epoch: 10 February)

Event Time Altitude Azimuth Distance (km) Brightness Sun altitude
Exits shadow 05:25:17 46° 268° (W) 1,111 2.8 -21.8°
Maximum altitude 05:25:49 48° 250° (WSW) 1,089 2.9 -21.7°
Drops below altitude 10° 05:31:09 10° 177° (S) 2,439 5.2 -20.8°
Sets 05:33:39 0° 172° (S) 3,368 6.0 -20.4°
